This is the latest recevied weather packets stored in our database for station/object DK8HC-WX. If no packets are shown the sender has not sent any weather packets the latest 10 day(s).
| Time | Temp. | Humidity | Pressure | Rain* | Wind** | Luminosity | Snow |
|---|---|---|---|---|---|---|---|
| 1777974714 | 13.33° C | 100% | 1035.9 hPa | - | - | - | - |
| 1777974114 | 13.33° C | 100% | 1037.3 hPa | - | - | - | - |
| 1777973515 | 13.89° C | 100% | 1038.8 hPa | - | - | - | - |
| 1777972914 | 13.89° C | 100% | 1040 hPa | - | - | - | - |
| 1777972314 | 13.33° C | 100% | 1040.5 hPa | - | - | - | - |
| 1777971714 | 13.33° C | 100% | 1041.3 hPa | - | - | - | - |
| 1777971114 | 13.33° C | 100% | 1042.3 hPa | - | - | - | - |
| 1777970514 | 13.89° C | 100% | 1043.4 hPa | - | - | - | - |
| 1777969914 | 12.78° C | 100% | 1042.9 hPa | - | - | - | - |
| 1777969314 | 12.78° C | 100% | 1042.9 hPa | - | - | - | - |
| 1777968714 | 12.22° C | 100% | 1042.6 hPa | - | - | - | - |
| 1777968114 | 11.67° C | 100% | 1042.4 hPa | - | - | - | - |
| 1777967514 | 11.67° C | 100% | 1042.5 hPa | - | - | - | - |
| 1777966913 | 11.67° C | 100% | 1042.8 hPa | - | - | - | - |
| 1777966314 | 11.67° C | 100% | 1042.7 hPa | - | - | - | - |
| 1777965713 | 12.22° C | 100% | 1042.9 hPa | - | - | - | - |
| 1777965114 | 12.22° C | 100% | 1042.6 hPa | - | - | - | - |
| 1777964513 | 12.22° C | 100% | 1042.8 hPa | - | - | - | - |
| 1777963914 | 12.22° C | 100% | 1042.7 hPa | - | - | - | - |
| 1777963314 | 12.22° C | 100% | 1042.6 hPa | - | - | - | - |
| 1777962713 | 12.78° C | 100% | 1042.9 hPa | - | - | - | - |
| 1777962113 | 12.78° C | 100% | 1043.1 hPa | - | - | - | - |
| 1777961513 | 13.33° C | 100% | 1043.4 hPa | - | - | - | - |
| 1777960913 | 13.89° C | 100% | 1043.8 hPa | - | - | - | - |
| 1777960313 | 13.89° C | 100% | 1043.7 hPa | - | - | - | - |
* Rain since midnight (hover to see other rain measurements)
** Current wind speed in m/s (hover to see current wind gust speed)